Year,Month,Day,Hour,Minute,Value (Times are PST for temperature in C)
2007,05,24,00,00,9.80
2007,05,24,00,01,9.80
2007,05,24,00,02,9.80
2007,05,24,00,03,9.80
2007,05,24,00,04,9.80
2007,05,24,00,05,9.80
2007,05,24,00,06,9.80
2007,05,24,00,07,9.80
2007,05,24,00,08,9.80
2007,05,24,00,09,9.80
2007,05,24,00,10,9.80
2007,05,24,00,11,9.80
2007,05,24,00,12,9.70
2007,05,24,00,13,9.70
2007,05,24,00,14,9.70
2007,05,24,00,15,9.70
2007,05,24,00,16,9.70
2007,05,24,00,17,9.70
2007,05,24,00,18,9.70
2007,05,24,00,19,9.60
2007,05,24,00,20,9.60
2007,05,24,00,21,9.60
2007,05,24,00,22,9.60
2007,05,24,00,23,9.60
2007,05,24,00,24,9.60
2007,05,24,00,25,9.50
2007,05,24,00,26,9.50
2007,05,24,00,27,9.50
2007,05,24,00,28,9.50
2007,05,24,00,29,9.50
2007,05,24,00,30,9.40
2007,05,24,00,31,9.40
2007,05,24,00,32,9.40
2007,05,24,00,33,9.40
2007,05,24,00,34,9.30
2007,05,24,00,35,9.30
2007,05,24,00,36,9.30
2007,05,24,00,37,9.30
2007,05,24,00,38,9.30
2007,05,24,00,39,9.20
2007,05,24,00,40,9.20
2007,05,24,00,41,9.20
2007,05,24,00,42,9.20
2007,05,24,00,43,9.20
2007,05,24,00,44,9.20
2007,05,24,00,45,9.10
2007,05,24,00,46,9.10
2007,05,24,00,47,9.10
2007,05,24,00,48,9.10
2007,05,24,00,49,9.10
2007,05,24,00,50,9.10
2007,05,24,00,51,9.00
2007,05,24,00,52,9.00
2007,05,24,00,53,9.00
2007,05,24,00,54,9.00
2007,05,24,00,55,8.90
2007,05,24,00,56,8.90
2007,05,24,00,57,8.90
2007,05,24,00,58,8.90
2007,05,24,00,59,8.90
2007,05,24,01,00,8.90
2007,05,24,01,01,8.90
2007,05,24,01,02,8.90
2007,05,24,01,03,8.90
2007,05,24,01,04,8.90
2007,05,24,01,05,8.90
2007,05,24,01,06,8.90
2007,05,24,01,07,8.90
2007,05,24,01,08,8.80
2007,05,24,01,09,8.80
2007,05,24,01,10,8.80
2007,05,24,01,11,8.80
2007,05,24,01,12,8.80
2007,05,24,01,13,8.80
2007,05,24,01,14,8.80
2007,05,24,01,15,8.70
2007,05,24,01,16,8.70
2007,05,24,01,17,8.70
2007,05,24,01,18,8.70
2007,05,24,01,19,8.70
2007,05,24,01,20,8.70
2007,05,24,01,21,8.70
2007,05,24,01,22,8.70
2007,05,24,01,23,8.60
2007,05,24,01,24,8.60
2007,05,24,01,25,8.60
2007,05,24,01,26,8.60
2007,05,24,01,27,8.60
2007,05,24,01,28,8.60
2007,05,24,01,29,8.60
2007,05,24,01,30,8.60
2007,05,24,01,31,8.60
2007,05,24,01,32,8.60
2007,05,24,01,33,8.60
2007,05,24,01,34,8.50
2007,05,24,01,35,8.50
2007,05,24,01,36,8.50
2007,05,24,01,37,8.50
2007,05,24,01,38,8.50
2007,05,24,01,39,8.50
2007,05,24,01,40,8.50
2007,05,24,01,41,8.50
2007,05,24,01,42,8.50
2007,05,24,01,43,8.40
2007,05,24,01,44,8.40
2007,05,24,01,45,8.40
2007,05,24,01,46,8.40
2007,05,24,01,47,8.40
2007,05,24,01,48,8.40
2007,05,24,01,49,8.40
2007,05,24,01,50,8.40
2007,05,24,01,51,8.40
2007,05,24,01,52,8.40
2007,05,24,01,53,8.40
2007,05,24,01,54,8.30
2007,05,24,01,55,8.30
2007,05,24,01,56,8.30
2007,05,24,01,57,8.30
2007,05,24,01,58,8.30
2007,05,24,01,59,8.30
2007,05,24,02,00,8.30
2007,05,24,02,01,8.30
2007,05,24,02,02,8.30
2007,05,24,02,03,8.30
2007,05,24,02,04,8.30
2007,05,24,02,05,8.30
2007,05,24,02,06,8.30
2007,05,24,02,07,8.30
2007,05,24,02,08,8.30
2007,05,24,02,09,8.30
2007,05,24,02,10,8.30
2007,05,24,02,11,8.30
2007,05,24,02,12,8.30
2007,05,24,02,13,8.30
2007,05,24,02,14,8.30
2007,05,24,02,15,8.30
2007,05,24,02,16,8.30
2007,05,24,02,17,8.30
2007,05,24,02,18,8.30
2007,05,24,02,19,8.30
2007,05,24,02,20,8.30
2007,05,24,02,21,8.30
2007,05,24,02,22,8.30
2007,05,24,02,23,8.30
2007,05,24,02,24,8.30
2007,05,24,02,25,8.30
2007,05,24,02,26,8.30
2007,05,24,02,27,8.30
2007,05,24,02,28,8.20
2007,05,24,02,29,8.20
2007,05,24,02,30,8.20
2007,05,24,02,31,8.20
2007,05,24,02,32,8.20
2007,05,24,02,33,8.20
2007,05,24,02,34,8.20
2007,05,24,02,35,8.20
2007,05,24,02,36,8.20
2007,05,24,02,37,8.10
2007,05,24,02,38,8.10
2007,05,24,02,39,8.10
2007,05,24,02,40,8.10
2007,05,24,02,41,8.00
2007,05,24,02,42,8.00
2007,05,24,02,43,8.00
2007,05,24,02,44,7.90
2007,05,24,02,45,7.90
2007,05,24,02,46,7.90
2007,05,24,02,47,7.90
2007,05,24,02,48,7.80
2007,05,24,02,49,7.80
2007,05,24,02,50,7.80
2007,05,24,02,51,7.80
2007,05,24,02,52,7.70
2007,05,24,02,53,7.70
2007,05,24,02,54,7.70
2007,05,24,02,55,7.70
2007,05,24,02,56,7.60
2007,05,24,02,57,7.60
2007,05,24,02,58,7.50
2007,05,24,02,59,7.50
2007,05,24,03,00,7.50
2007,05,24,03,01,7.40
2007,05,24,03,02,7.40
2007,05,24,03,03,7.40
2007,05,24,03,04,7.40
2007,05,24,03,05,7.40
2007,05,24,03,06,7.30
2007,05,24,03,07,7.30
2007,05,24,03,08,7.30
2007,05,24,03,09,7.30
2007,05,24,03,10,7.30
2007,05,24,03,11,7.30
2007,05,24,03,12,7.20
2007,05,24,03,13,7.20
2007,05,24,03,14,7.20
2007,05,24,03,15,7.20
2007,05,24,03,16,7.20
2007,05,24,03,17,7.10
2007,05,24,03,18,7.10
2007,05,24,03,19,7.10
2007,05,24,03,20,7.10
2007,05,24,03,21,7.00
2007,05,24,03,22,7.00
2007,05,24,03,23,7.00
2007,05,24,03,24,6.90
2007,05,24,03,25,6.90
2007,05,24,03,26,6.90
2007,05,24,03,27,6.90
2007,05,24,03,28,6.90
2007,05,24,03,29,6.90
2007,05,24,03,30,6.80
2007,05,24,03,31,6.80
2007,05,24,03,32,6.80
2007,05,24,03,33,6.80
2007,05,24,03,34,6.90
2007,05,24,03,35,6.90
2007,05,24,03,36,6.90
2007,05,24,03,37,6.90
2007,05,24,03,38,6.90
2007,05,24,03,39,6.90
2007,05,24,03,40,6.90
2007,05,24,03,41,6.90
2007,05,24,03,42,6.90
2007,05,24,03,43,6.90
2007,05,24,03,44,6.90
2007,05,24,03,45,6.90
2007,05,24,03,46,6.90
2007,05,24,03,47,6.90
2007,05,24,03,48,6.90
2007,05,24,03,49,6.80
2007,05,24,03,50,6.80
2007,05,24,03,51,6.80
2007,05,24,03,52,6.70
2007,05,24,03,53,6.70
2007,05,24,03,54,6.70
2007,05,24,03,55,6.70
2007,05,24,03,56,6.60
2007,05,24,03,57,6.60
2007,05,24,03,58,6.60
2007,05,24,03,59,6.60
2007,05,24,04,00,6.60
2007,05,24,04,01,6.50
2007,05,24,04,02,6.50
2007,05,24,04,03,6.50
2007,05,24,04,04,6.50
2007,05,24,04,05,6.40
2007,05,24,04,06,6.40
2007,05,24,04,07,6.40
2007,05,24,04,08,6.40
2007,05,24,04,09,6.40
2007,05,24,04,10,6.30
2007,05,24,04,11,6.30
2007,05,24,04,12,6.30
2007,05,24,04,13,6.30
2007,05,24,04,14,6.30
2007,05,24,04,15,6.30
2007,05,24,04,16,6.30
2007,05,24,04,17,6.20
2007,05,24,04,18,6.20
2007,05,24,04,19,6.20
2007,05,24,04,20,6.20
2007,05,24,04,21,6.20
2007,05,24,04,22,6.20
2007,05,24,04,23,6.20
2007,05,24,04,24,6.20
2007,05,24,04,25,6.20
2007,05,24,04,26,6.20
2007,05,24,04,27,6.20
2007,05,24,04,28,6.20
2007,05,24,04,29,6.20
2007,05,24,04,30,6.20
2007,05,24,04,31,6.20
2007,05,24,04,32,6.30
2007,05,24,04,33,6.30
2007,05,24,04,34,6.30
2007,05,24,04,35,6.30
2007,05,24,04,36,6.30
2007,05,24,04,37,6.30
2007,05,24,04,38,6.30
2007,05,24,04,39,6.30
2007,05,24,04,40,6.30
2007,05,24,04,41,6.30
2007,05,24,04,42,6.30
2007,05,24,04,43,6.40
2007,05,24,04,44,6.40
2007,05,24,04,45,6.40
2007,05,24,04,46,6.40
2007,05,24,04,47,6.40
2007,05,24,04,48,6.40
2007,05,24,04,49,6.40
2007,05,24,04,50,6.40
2007,05,24,04,51,6.40
2007,05,24,04,52,6.40
2007,05,24,04,53,6.40
2007,05,24,04,54,6.40
2007,05,24,04,55,6.40
2007,05,24,04,56,6.40
2007,05,24,04,57,6.40
2007,05,24,04,58,6.40
2007,05,24,04,59,6.40
2007,05,24,05,00,6.40
2007,05,24,05,01,6.40
2007,05,24,05,02,6.50
2007,05,24,05,03,6.50
2007,05,24,05,04,6.50
2007,05,24,05,05,6.50
2007,05,24,05,06,6.60
2007,05,24,05,07,6.60
2007,05,24,05,08,6.60
2007,05,24,05,09,6.70
2007,05,24,05,10,6.70
2007,05,24,05,11,6.70
2007,05,24,05,12,6.80
2007,05,24,05,13,6.80
2007,05,24,05,14,6.80
2007,05,24,05,15,6.80
2007,05,24,05,16,6.80
2007,05,24,05,17,6.80
2007,05,24,05,18,6.90
2007,05,24,05,19,6.90
2007,05,24,05,20,6.90
2007,05,24,05,21,6.90
2007,05,24,05,22,7.00
2007,05,24,05,23,7.00
2007,05,24,05,24,7.00
2007,05,24,05,25,7.10
2007,05,24,05,26,7.10
2007,05,24,05,27,7.10
2007,05,24,05,28,7.10
2007,05,24,05,29,7.00
2007,05,24,05,30,7.00
2007,05,24,05,31,7.00
2007,05,24,05,32,6.90
2007,05,24,05,33,6.90
2007,05,24,05,34,6.80
2007,05,24,05,35,6.80
2007,05,24,05,36,6.80
2007,05,24,05,37,6.80
2007,05,24,05,38,6.80
2007,05,24,05,39,6.80
2007,05,24,05,40,6.80
2007,05,24,05,41,6.80
2007,05,24,05,42,6.80
2007,05,24,05,43,6.90
2007,05,24,05,44,6.90
2007,05,24,05,45,6.90
2007,05,24,05,46,6.90
2007,05,24,05,47,6.90
2007,05,24,05,48,7.00
2007,05,24,05,49,7.00
2007,05,24,05,50,7.00
2007,05,24,05,51,7.00
2007,05,24,05,52,7.00
2007,05,24,05,53,7.00
2007,05,24,05,54,7.10
2007,05,24,05,55,7.10
2007,05,24,05,56,7.10
2007,05,24,05,57,7.00
2007,05,24,05,58,7.00
2007,05,24,05,59,7.00
2007,05,24,06,00,7.00
2007,05,24,06,01,7.00
2007,05,24,06,02,6.90
2007,05,24,06,03,6.90
2007,05,24,06,04,6.90
2007,05,24,06,05,6.90
2007,05,24,06,06,6.90
2007,05,24,06,07,6.90
2007,05,24,06,08,7.00
2007,05,24,06,09,7.00
2007,05,24,06,10,7.00
2007,05,24,06,11,7.00
2007,05,24,06,12,7.00
2007,05,24,06,13,7.00
2007,05,24,06,14,7.00
2007,05,24,06,15,7.00
2007,05,24,06,16,7.10
2007,05,24,06,17,7.20
2007,05,24,06,18,7.20
2007,05,24,06,19,7.20
2007,05,24,06,20,7.20
2007,05,24,06,21,7.30
2007,05,24,06,22,7.30
2007,05,24,06,23,7.40
2007,05,24,06,24,7.50
2007,05,24,06,25,7.50
2007,05,24,06,26,7.60
2007,05,24,06,27,7.60
2007,05,24,06,28,7.70
2007,05,24,06,29,7.80
2007,05,24,06,30,7.80
2007,05,24,06,31,7.90
2007,05,24,06,32,8.00
2007,05,24,06,33,8.10
2007,05,24,06,34,8.10
2007,05,24,06,35,8.10
2007,05,24,06,36,8.20
2007,05,24,06,37,8.20
2007,05,24,06,38,8.20
2007,05,24,06,39,8.30
2007,05,24,06,40,8.40
2007,05,24,06,41,8.50
2007,05,24,06,42,8.60
2007,05,24,06,43,8.70
2007,05,24,06,44,8.80
2007,05,24,06,45,8.90
2007,05,24,06,46,9.00
2007,05,24,06,47,9.10
2007,05,24,06,48,9.10
2007,05,24,06,49,9.20
2007,05,24,06,50,9.30
2007,05,24,06,51,9.40
2007,05,24,06,52,9.40
2007,05,24,06,53,9.50
2007,05,24,06,54,9.60
2007,05,24,06,55,9.70
2007,05,24,06,56,9.80
2007,05,24,06,57,9.90
2007,05,24,06,58,10.00
2007,05,24,06,59,10.20
2007,05,24,07,00,10.30
2007,05,24,07,01,10.40
2007,05,24,07,02,10.40
2007,05,24,07,03,10.60
2007,05,24,07,04,10.60
2007,05,24,07,05,10.60
2007,05,24,07,06,10.70
2007,05,24,07,07,10.70
2007,05,24,07,08,10.70
2007,05,24,07,09,10.70
2007,05,24,07,10,10.70
2007,05,24,07,11,10.70
2007,05,24,07,12,10.60
2007,05,24,07,13,10.60
2007,05,24,07,14,10.70
2007,05,24,07,15,10.70
2007,05,24,07,16,10.70
2007,05,24,07,17,10.70
2007,05,24,07,18,10.70
2007,05,24,07,19,10.70
2007,05,24,07,20,10.70
2007,05,24,07,21,10.80
2007,05,24,07,22,10.80
2007,05,24,07,23,10.90
2007,05,24,07,24,10.90
2007,05,24,07,25,10.90
2007,05,24,07,26,10.90
2007,05,24,07,27,11.00
2007,05,24,07,28,11.00
2007,05,24,07,29,11.10
2007,05,24,07,30,11.20
2007,05,24,07,31,11.30
2007,05,24,07,32,11.40
2007,05,24,07,33,11.50
2007,05,24,07,34,11.70
2007,05,24,07,35,11.80
2007,05,24,07,36,11.90
2007,05,24,07,37,12.00
2007,05,24,07,38,12.10
2007,05,24,07,39,12.20
2007,05,24,07,40,12.30
2007,05,24,07,41,12.30
2007,05,24,07,42,12.40
2007,05,24,07,43,12.40
2007,05,24,07,44,12.50
2007,05,24,07,45,12.50
2007,05,24,07,46,12.60
2007,05,24,07,47,12.60
2007,05,24,07,48,12.50
2007,05,24,07,49,12.50
2007,05,24,07,50,12.40
2007,05,24,07,51,12.30
2007,05,24,07,52,12.20
2007,05,24,07,53,12.10
2007,05,24,07,54,12.10
2007,05,24,07,55,12.00
2007,05,24,07,56,11.90
2007,05,24,07,57,11.80
2007,05,24,07,58,11.70
2007,05,24,07,59,11.60
2007,05,24,08,00,11.50
2007,05,24,08,01,11.40
2007,05,24,08,02,11.30
2007,05,24,08,03,11.30
2007,05,24,08,04,11.30
2007,05,24,08,05,11.30
2007,05,24,08,06,11.30
2007,05,24,08,07,11.40
2007,05,24,08,08,11.40
2007,05,24,08,09,11.50
2007,05,24,08,10,11.50
2007,05,24,08,11,11.60
2007,05,24,08,12,11.60
2007,05,24,08,13,11.60
2007,05,24,08,14,11.60
2007,05,24,08,15,11.60
2007,05,24,08,16,11.60
2007,05,24,08,17,11.70
2007,05,24,08,18,11.70
2007,05,24,08,19,11.70
2007,05,24,08,20,11.80
2007,05,24,08,21,11.80
2007,05,24,08,22,11.90
2007,05,24,08,23,11.90
2007,05,24,08,24,11.90
2007,05,24,08,25,12.00
2007,05,24,08,26,12.00
2007,05,24,08,27,12.10
2007,05,24,08,28,12.10
2007,05,24,08,29,12.10
2007,05,24,08,30,12.20
2007,05,24,08,31,12.20
2007,05,24,08,32,12.10
2007,05,24,08,33,12.10
2007,05,24,08,34,12.10
2007,05,24,08,35,12.00
2007,05,24,08,36,12.10
2007,05,24,08,37,12.10
2007,05,24,08,38,12.10
2007,05,24,08,39,12.10
2007,05,24,08,40,12.10
2007,05,24,08,41,12.20
2007,05,24,08,42,12.20
2007,05,24,08,43,12.30
2007,05,24,08,44,12.40
2007,05,24,08,45,12.50
2007,05,24,08,46,12.70
2007,05,24,08,47,12.70
2007,05,24,08,48,12.70
2007,05,24,08,49,12.70
2007,05,24,08,50,12.70
2007,05,24,08,51,12.70
2007,05,24,08,52,12.70
2007,05,24,08,53,12.70
2007,05,24,08,54,12.60
2007,05,24,08,55,12.60
2007,05,24,08,56,12.50
2007,05,24,08,57,12.60
2007,05,24,08,58,12.60
2007,05,24,08,59,12.50
2007,05,24,09,00,12.50
2007,05,24,09,01,12.50
2007,05,24,09,02,12.50
2007,05,24,09,03,12.50
2007,05,24,09,04,12.40
2007,05,24,09,05,12.30
2007,05,24,09,06,12.30
2007,05,24,09,07,12.20
2007,05,24,09,08,12.20
2007,05,24,09,09,12.10
2007,05,24,09,10,12.10
2007,05,24,09,11,12.10
2007,05,24,09,12,12.10
2007,05,24,09,13,12.10
2007,05,24,09,14,12.20
2007,05,24,09,15,12.20
2007,05,24,09,16,12.20
2007,05,24,09,17,12.20
2007,05,24,09,18,12.30
2007,05,24,09,19,12.30
2007,05,24,09,20,12.40
2007,05,24,09,21,12.40
2007,05,24,09,22,12.50
2007,05,24,09,23,12.50
2007,05,24,09,24,12.50
2007,05,24,09,25,12.40
2007,05,24,09,26,12.40
2007,05,24,09,27,12.30
2007,05,24,09,28,12.20
2007,05,24,09,29,12.20
2007,05,24,09,30,12.30
2007,05,24,09,31,12.40
2007,05,24,09,32,12.50
2007,05,24,09,33,12.50
2007,05,24,09,34,12.60
2007,05,24,09,35,12.60
2007,05,24,09,36,12.70
2007,05,24,09,37,12.80
2007,05,24,09,38,12.80
2007,05,24,09,39,12.90
2007,05,24,09,40,13.00
2007,05,24,09,41,13.10
2007,05,24,09,42,13.10
2007,05,24,09,43,13.20
2007,05,24,09,44,13.30
2007,05,24,09,45,13.40
2007,05,24,09,46,13.40
2007,05,24,09,47,13.50
2007,05,24,09,48,13.60
2007,05,24,09,49,13.80
2007,05,24,09,50,14.10
2007,05,24,09,51,14.30
2007,05,24,09,52,14.60
2007,05,24,09,53,14.70
2007,05,24,09,54,14.80
2007,05,24,09,55,14.80
2007,05,24,09,56,14.80
2007,05,24,09,57,14.80
2007,05,24,09,58,14.60
2007,05,24,09,59,14.20
2007,05,24,10,00,13.90
2007,05,24,10,01,13.70
2007,05,24,10,02,13.60
2007,05,24,10,03,13.40
2007,05,24,10,04,13.30
2007,05,24,10,05,13.30
2007,05,24,10,06,13.30
2007,05,24,10,07,13.30
2007,05,24,10,08,13.30
2007,05,24,10,09,13.30
2007,05,24,10,10,13.20
2007,05,24,10,11,13.20
2007,05,24,10,12,13.20
2007,05,24,10,13,13.30
2007,05,24,10,14,13.40
2007,05,24,10,15,13.60
2007,05,24,10,16,13.80
2007,05,24,10,17,14.00
2007,05,24,10,18,14.20
2007,05,24,10,19,14.30
2007,05,24,10,20,14.40
2007,05,24,10,21,14.40
2007,05,24,10,22,14.40
2007,05,24,10,23,14.40
2007,05,24,10,24,14.30
2007,05,24,10,25,14.20
2007,05,24,10,26,14.00
2007,05,24,10,27,13.80
2007,05,24,10,28,13.70
2007,05,24,10,29,13.70
2007,05,24,10,30,13.60
2007,05,24,10,31,13.40
2007,05,24,10,32,13.20
2007,05,24,10,33,12.90
2007,05,24,10,34,12.70
2007,05,24,10,35,12.60
2007,05,24,10,36,12.50
2007,05,24,10,37,12.50
2007,05,24,10,38,12.60
2007,05,24,10,39,12.60
2007,05,24,10,40,12.70
2007,05,24,10,41,12.80
2007,05,24,10,42,12.80
2007,05,24,10,43,12.70
2007,05,24,10,44,12.70
2007,05,24,10,45,12.70
2007,05,24,10,46,12.80
2007,05,24,10,47,12.80
2007,05,24,10,48,12.90
2007,05,24,10,49,12.90
2007,05,24,10,50,12.80
2007,05,24,10,51,12.80
2007,05,24,10,52,12.90
2007,05,24,10,53,12.90
2007,05,24,10,54,13.00
2007,05,24,10,55,13.00
2007,05,24,10,56,13.10
2007,05,24,10,57,13.20
2007,05,24,10,58,13.20
2007,05,24,10,59,13.30
2007,05,24,11,00,13.30
2007,05,24,11,01,13.30
2007,05,24,11,02,13.30
2007,05,24,11,03,13.30
2007,05,24,11,04,13.20
2007,05,24,11,05,13.30
2007,05,24,11,06,13.30
2007,05,24,11,07,13.30
2007,05,24,11,08,13.40
2007,05,24,11,09,13.50
2007,05,24,11,10,13.60
2007,05,24,11,11,13.60
2007,05,24,11,12,13.70
2007,05,24,11,13,13.80
2007,05,24,11,14,13.80
2007,05,24,11,15,13.90
2007,05,24,11,16,14.00
2007,05,24,11,17,14.00
2007,05,24,11,18,14.00
2007,05,24,11,19,14.00
2007,05,24,11,20,13.90
2007,05,24,11,21,14.00
2007,05,24,11,22,14.00
2007,05,24,11,23,14.00
2007,05,24,11,24,14.00
2007,05,24,11,25,14.00
2007,05,24,11,26,13.90
2007,05,24,11,27,13.80
2007,05,24,11,28,13.70
2007,05,24,11,29,13.70
2007,05,24,11,30,13.70
2007,05,24,11,31,13.60
2007,05,24,11,32,13.60
2007,05,24,11,33,13.60
2007,05,24,11,34,13.70
2007,05,24,11,35,13.80
2007,05,24,11,36,13.90
2007,05,24,11,37,14.00
2007,05,24,11,38,14.10
2007,05,24,11,39,14.20
2007,05,24,11,40,14.20
2007,05,24,11,41,14.30
2007,05,24,11,42,14.30
2007,05,24,11,43,14.30
2007,05,24,11,44,14.30
2007,05,24,11,45,14.30
2007,05,24,11,46,14.20
2007,05,24,11,47,14.10
2007,05,24,11,48,14.10
2007,05,24,11,49,14.20
2007,05,24,11,50,14.20
2007,05,24,11,51,14.20
2007,05,24,11,52,14.30
2007,05,24,11,53,14.40
2007,05,24,11,54,14.30
2007,05,24,11,55,14.40
2007,05,24,11,56,14.50
2007,05,24,11,57,14.60
2007,05,24,11,58,14.60
2007,05,24,11,59,14.50
2007,05,24,12,00,14.50
2007,05,24,12,01,14.50
2007,05,24,12,02,14.40
2007,05,24,12,03,14.40
2007,05,24,12,04,14.50
2007,05,24,12,05,14.60
2007,05,24,12,06,14.70
2007,05,24,12,07,14.70
2007,05,24,12,08,14.70
2007,05,24,12,09,14.70
2007,05,24,12,10,14.70
2007,05,24,12,11,14.70
2007,05,24,12,12,14.80
2007,05,24,12,13,14.80
2007,05,24,12,14,14.70
2007,05,24,12,15,14.70
2007,05,24,12,16,14.60
2007,05,24,12,17,14.60
2007,05,24,12,18,14.70
2007,05,24,12,19,14.70
2007,05,24,12,20,14.80
2007,05,24,12,21,14.80
2007,05,24,12,22,14.80
2007,05,24,12,23,14.90
2007,05,24,12,24,15.00
2007,05,24,12,25,15.00
2007,05,24,12,26,15.00
2007,05,24,12,27,15.00
2007,05,24,12,28,15.00
2007,05,24,12,29,15.00
2007,05,24,12,30,15.00
2007,05,24,12,31,15.00
2007,05,24,12,32,14.80
2007,05,24,12,33,14.50
2007,05,24,12,34,14.40
2007,05,24,12,35,14.40
2007,05,24,12,36,14.40
2007,05,24,12,37,14.30
2007,05,24,12,38,14.40
2007,05,24,12,39,14.40
2007,05,24,12,40,14.40
2007,05,24,12,41,14.40
2007,05,24,12,42,14.50
2007,05,24,12,43,14.60
2007,05,24,12,44,14.60
2007,05,24,12,45,14.80
2007,05,24,12,46,15.00
2007,05,24,12,47,15.00
2007,05,24,12,48,15.00
2007,05,24,12,49,15.00
2007,05,24,12,50,15.00
2007,05,24,12,51,15.00
2007,05,24,12,52,15.00
2007,05,24,12,53,15.00
2007,05,24,12,54,15.00
2007,05,24,12,55,15.00
2007,05,24,12,56,15.10
2007,05,24,12,57,15.00
2007,05,24,12,58,15.00
2007,05,24,12,59,15.00
2007,05,24,13,00,15.10
2007,05,24,13,01,15.30
2007,05,24,13,02,15.40
2007,05,24,13,03,15.50
2007,05,24,13,04,15.50
2007,05,24,13,05,15.50
2007,05,24,13,06,15.50
2007,05,24,13,07,15.50
2007,05,24,13,08,15.50
2007,05,24,13,09,15.60
2007,05,24,13,10,15.60
2007,05,24,13,11,15.70
2007,05,24,13,12,15.80
2007,05,24,13,13,15.80
2007,05,24,13,14,15.90
2007,05,24,13,15,15.90
2007,05,24,13,16,15.90
2007,05,24,13,17,16.00
2007,05,24,13,18,16.00
2007,05,24,13,19,16.10
2007,05,24,13,20,16.20
2007,05,24,13,21,16.30
2007,05,24,13,22,16.40
2007,05,24,13,23,16.50
2007,05,24,13,24,16.50
2007,05,24,13,25,16.70
2007,05,24,13,26,16.80
2007,05,24,13,27,16.70
2007,05,24,13,28,16.60
2007,05,24,13,29,16.50
2007,05,24,13,30,16.30
2007,05,24,13,31,16.20
2007,05,24,13,32,16.20
2007,05,24,13,33,16.20
2007,05,24,13,34,16.20
2007,05,24,13,35,16.20
2007,05,24,13,36,16.30
2007,05,24,13,37,16.40
2007,05,24,13,38,16.50
2007,05,24,13,39,16.60
2007,05,24,13,40,16.60
2007,05,24,13,41,16.50
2007,05,24,13,42,16.40
2007,05,24,13,43,16.20
2007,05,24,13,44,16.10
2007,05,24,13,45,16.10
2007,05,24,13,46,16.10
2007,05,24,13,47,16.20
2007,05,24,13,48,16.20
2007,05,24,13,49,16.30
2007,05,24,13,50,16.40
2007,05,24,13,51,16.50
2007,05,24,13,52,16.60
2007,05,24,13,53,16.70
2007,05,24,13,54,16.80
2007,05,24,13,55,16.90
2007,05,24,13,56,16.90
2007,05,24,13,57,17.00
2007,05,24,13,58,17.20
2007,05,24,13,59,17.30
2007,05,24,14,00,17.40
2007,05,24,14,01,17.50
2007,05,24,14,02,17.60
2007,05,24,14,03,17.70
2007,05,24,14,04,17.80
2007,05,24,14,05,17.90
2007,05,24,14,06,18.10
2007,05,24,14,07,18.10
2007,05,24,14,08,18.10
2007,05,24,14,09,18.10
2007,05,24,14,10,18.10
2007,05,24,14,11,18.10
2007,05,24,14,12,18.10
2007,05,24,14,13,18.20
2007,05,24,14,14,18.30
2007,05,24,14,15,18.30
2007,05,24,14,16,18.30
2007,05,24,14,17,18.40
2007,05,24,14,18,18.40
2007,05,24,14,19,18.40
2007,05,24,14,20,18.50
2007,05,24,14,21,18.60
2007,05,24,14,22,18.70
2007,05,24,14,23,18.80
2007,05,24,14,24,18.90
2007,05,24,14,25,18.80
2007,05,24,14,26,18.70
2007,05,24,14,27,18.50
2007,05,24,14,28,18.40
2007,05,24,14,29,18.50
2007,05,24,14,30,18.50
2007,05,24,14,31,18.70
2007,05,24,14,32,18.80
2007,05,24,14,33,18.90
2007,05,24,14,34,18.80
2007,05,24,14,35,18.80
2007,05,24,14,36,18.90
2007,05,24,14,37,19.00
2007,05,24,14,38,19.00
2007,05,24,14,39,19.20
2007,05,24,14,40,19.30
2007,05,24,14,41,19.30
2007,05,24,14,42,19.30
2007,05,24,14,43,19.10
2007,05,24,14,44,19.00
2007,05,24,14,45,18.80
2007,05,24,14,46,18.60
2007,05,24,14,47,18.50
2007,05,24,14,48,18.50
2007,05,24,14,49,18.40
2007,05,24,14,50,18.40
2007,05,24,14,51,18.50
2007,05,24,14,52,18.60
2007,05,24,14,53,18.60
2007,05,24,14,54,18.60
2007,05,24,14,55,18.70
2007,05,24,14,56,18.80
2007,05,24,14,57,19.00
2007,05,24,14,58,19.20
2007,05,24,14,59,19.30
2007,05,24,15,00,19.30
2007,05,24,15,01,19.10
2007,05,24,15,02,18.80
2007,05,24,15,03,18.40
2007,05,24,15,04,18.00
2007,05,24,15,05,17.50
2007,05,24,15,06,17.10
2007,05,24,15,07,16.70
2007,05,24,15,08,16.50
2007,05,24,15,09,16.50
2007,05,24,15,10,16.40
2007,05,24,15,11,16.40
2007,05,24,15,12,16.30
2007,05,24,15,13,16.20
2007,05,24,15,14,16.10
2007,05,24,15,15,16.00
2007,05,24,15,16,16.00
2007,05,24,15,17,15.90
2007,05,24,15,18,15.90
2007,05,24,15,19,15.80
2007,05,24,15,20,15.70
2007,05,24,15,21,15.60
2007,05,24,15,22,15.50
2007,05,24,15,23,15.60
2007,05,24,15,24,15.70
2007,05,24,15,25,15.80
2007,05,24,15,26,15.90
2007,05,24,15,27,15.90
2007,05,24,15,28,15.80
2007,05,24,15,29,15.80
2007,05,24,15,30,15.80
2007,05,24,15,31,15.80
2007,05,24,15,32,15.80
2007,05,24,15,33,15.80
2007,05,24,15,34,15.80
2007,05,24,15,35,15.70
2007,05,24,15,36,15.70
2007,05,24,15,37,15.70
2007,05,24,15,38,15.80
2007,05,24,15,39,15.90
2007,05,24,15,40,16.00
2007,05,24,15,41,16.10
2007,05,24,15,42,16.10
2007,05,24,15,43,16.10
2007,05,24,15,44,16.20
2007,05,24,15,45,16.20
2007,05,24,15,46,16.20
2007,05,24,15,47,16.20
2007,05,24,15,48,16.20
2007,05,24,15,49,16.20
2007,05,24,15,50,16.30
2007,05,24,15,51,16.30
2007,05,24,15,52,16.20
2007,05,24,15,53,16.20
2007,05,24,15,54,16.10
2007,05,24,15,55,16.10
2007,05,24,15,56,16.20
2007,05,24,15,57,16.30
2007,05,24,15,58,16.30
2007,05,24,15,59,16.20
2007,05,24,16,00,16.20
2007,05,24,16,01,16.10
2007,05,24,16,02,16.10
2007,05,24,16,03,16.10
2007,05,24,16,04,16.20
2007,05,24,16,05,16.30
2007,05,24,16,06,16.50
2007,05,24,16,07,16.50
2007,05,24,16,08,16.60
2007,05,24,16,09,16.80
2007,05,24,16,10,16.90
2007,05,24,16,11,17.00
2007,05,24,16,12,17.00
2007,05,24,16,13,17.00
2007,05,24,16,14,17.10
2007,05,24,16,15,17.10
2007,05,24,16,16,17.10
2007,05,24,16,17,17.20
2007,05,24,16,18,17.30
2007,05,24,16,19,17.40
2007,05,24,16,20,17.40
2007,05,24,16,21,17.40
2007,05,24,16,22,17.40
2007,05,24,16,23,17.50
2007,05,24,16,24,17.50
2007,05,24,16,25,17.60
2007,05,24,16,26,17.60
2007,05,24,16,27,17.50
2007,05,24,16,28,17.40
2007,05,24,16,29,17.30
2007,05,24,16,30,17.20
2007,05,24,16,31,17.30
2007,05,24,16,32,17.30
2007,05,24,16,33,17.40
2007,05,24,16,34,17.60
2007,05,24,16,35,17.70
2007,05,24,16,36,17.80
2007,05,24,16,37,18.00
2007,05,24,16,38,18.00
2007,05,24,16,39,18.10
2007,05,24,16,40,18.20
2007,05,24,16,41,18.30
2007,05,24,16,42,18.20
2007,05,24,16,43,18.20
2007,05,24,16,44,18.30
2007,05,24,16,45,18.30
2007,05,24,16,46,18.30
2007,05,24,16,47,18.40
2007,05,24,16,48,18.40
2007,05,24,16,49,18.40
2007,05,24,16,50,18.40
2007,05,24,16,51,18.50
2007,05,24,16,52,18.40
2007,05,24,16,53,18.30
2007,05,24,16,54,18.30
2007,05,24,16,55,18.30
2007,05,24,16,56,18.30
2007,05,24,16,57,18.30
2007,05,24,16,58,18.30
2007,05,24,16,59,18.40
2007,05,24,17,00,18.40
2007,05,24,17,01,18.40
2007,05,24,17,02,18.40
2007,05,24,17,03,18.30
2007,05,24,17,04,18.20
2007,05,24,17,05,18.10
2007,05,24,17,06,18.00
2007,05,24,17,07,17.90
2007,05,24,17,08,18.00
2007,05,24,17,09,18.10
2007,05,24,17,10,18.10
2007,05,24,17,11,18.20
2007,05,24,17,12,18.20
2007,05,24,17,13,18.20
2007,05,24,17,14,18.10
2007,05,24,17,15,18.00
2007,05,24,17,16,18.00
2007,05,24,17,17,17.90
2007,05,24,17,18,17.90
2007,05,24,17,19,17.90
2007,05,24,17,20,17.90
2007,05,24,17,21,18.00
2007,05,24,17,22,18.00
2007,05,24,17,23,18.10
2007,05,24,17,24,18.00
2007,05,24,17,25,17.90
2007,05,24,17,26,17.80
2007,05,24,17,27,17.80
2007,05,24,17,28,17.80
2007,05,24,17,29,17.80
2007,05,24,17,30,17.80
2007,05,24,17,31,17.90
2007,05,24,17,32,17.90
2007,05,24,17,33,18.00
2007,05,24,17,34,17.90
2007,05,24,17,35,17.90
2007,05,24,17,36,17.90
2007,05,24,17,37,17.80